Preview of NWS' New Version of Forecast
This preview is not operational and should not be used for support decisions.

Regional Weather Roundup (RWR)

Issued by National Weather Service (NWS)

                            
000
ASUS42 KTBW 231315
RWRFL 
FLORIDA REGIONAL WEATHER ROUNDUP
NATIONAL WEATHER SERVICE TAMPA BAY RUSKIN FL
900 AM EDT SUN JUN 23 2019

NOTE: "FAIR" INDICATES FEW OR NO CLOUDS BELOW 12,000 FEET WITH NO
SIGNIFICANT WEATHER AND/OR OBSTRUCTIONS TO VISIBILITY.

FLZ001>010-012>015-112-114-115-231400-
PANHANDLE FLORIDA
  
CITY           SKY/WX    TMP DP  RH WIND       PRES   REMARKS
PENSACOLA      FAIR      85  81  88 SW12G20   30.06S HX 100           
PENSACOLA NAS  FAIR      84  79  85 SW13      30.06S HX  96           
CRESTVIEW      FAIR      81  76  84 S5        30.09F                  
DUKE FIELD     FAIR      81  79  94 CALM      30.08R                  
VALPARAISO     PTSUNNY   84  77  79 SW7       30.07R                  
MARY ESTHER    MOSUNNY   85  78  79 S9        30.06R HX  96           
TRI COUNTY     CLOUDY    81  78  91 NE6       30.10R                  
PANAMA CITY    FAIR      83  78  85 SW3       30.08R                  
TYNDALL AFB    FAIR      84  77  77 W12       30.08R                  
APALACHICOLA   FAIR      84  76  76 W8        30.08R                  

STATION/POSITION SKY/WX   TEMP    WIND        PRES    WAVE   SWELL
                          AIR SEA DIR/SP/G            HT/PER HT/PER
                          (F)     (DEG/KT/KT) (MB)    (FT/S) (FT/S)
PANAMA CITY BEAC           83 83  240/  8/  8 1019.3R
TOWER C          NOT AVBL

$$
FLZ011-016>038-118-127-128-134-139-239-231400-
NORTH FLORIDA
  
CITY           SKY/WX    TMP DP  RH WIND       PRES   REMARKS
MARIANNA       CLOUDY    80  78  94 NW7       30.10R                  
TALLAHASSEE    PTSUNNY   79  73  82 CALM      30.11R                  
PERRY          FAIR      82  77  86 NW3       30.10S                  
LIVE OAK       SUNNY     77  72  83 CALM      30.10S HAZE             
CROSS CITY     FAIR      81  76  83 CALM      30.10R                  
LAKE CITY      FAIR      77  72  83 W7        30.10S                  
GAINESVILLE    FAIR      81  74  79 W6        30.13R                  
PALATKA        FAIR      81  75  83 W5        30.11R                  
MAYPORT NAS    FAIR      79  73  82 W5        30.10R                  
JACKSONVILLE   PTSUNNY   76  72  87 CALM      30.09R                  
JAX NAS        PTSUNNY   80  68  66 SW3       30.11R                  
JAX CECIL      SUNNY     81  70  69 N3        30.11R                  
FERNANDINA BEA FAIR      77  72  85 NW5       30.10R                  
ST AUGUSTINE   FAIR      81  75  82 NW6       30.11R                  
PALM COAST     MOSUNNY   79  77  94 SW5       30.09R                  

STATION/POSITION SKY/WX   TEMP    WIND        PRES    WAVE   SWELL
                          AIR SEA DIR/SP/G            HT/PER HT/PER
                          (F)     (DEG/KT/KT) (MB)    (FT/S) (FT/S)
SHELL POINT      NOT AVBL
KEATON BEACH               84     270/ 10/ 11 1019.0R
CEDAR KEY                  83     260/  7/  9 1018.6R
FERNANDINA                 80 84  280/  4/  5 1019.8R
30.7N   81.3W                 82                N/A     1/ 8
MAYPORT                    78 83  280/  4/  5 1019.3R
ST AUGUSTINE               81 77  290/  4/  6 1019.4R

$$
FLZ040-043>046-052-053-057-058-063-144-231400-
INTERIOR CENTRAL FLORIDA
  
CITY           SKY/WX    TMP DP  RH WIND       PRES   REMARKS
OCALA          FAIR      83  77  82 W6        30.11R                  
LEESBURG       FAIR      82  77  84 W7        30.10R                  
SANFORD        FAIR      83  77  82 W8        30.09R                  
ORLANDO EXEC   FAIR      84  76  76 W8        30.09R                  
ORLANDO INTL   FAIR      83  76  79 W6        30.09R                  
KISSIMMEE      FAIR      83  78  85 W7        30.11R                  
WINTER HAVEN   FAIR      84  76  76 SW5       30.11R                  
LAKELAND       SUNNY     81  75  83 CALM      30.11R                  
BARTOW         SUNNY     82  77  83 W5        30.10R                  
SEBRING        FAIR      82  77  83 W3        30.10F                  
OKEECHOBEE     FAIR      81  75  83 CALM      30.10S                  

$$
FLZ041-047-054-059-064-141-147-231400-
EAST CENTRAL FLORIDA
  
CITY           SKY/WX    TMP DP  RH WIND       PRES   REMARKS
ORMOND BEACH   SUNNY     81  77  89 W6        30.09R FOG              
DAYTONA BEACH  FAIR      82  78  88 SW6       30.09R                  
DELAND         FAIR      82  75  78 W6        30.09R                  
NEW SMYRNA BEA MOSUNNY   82  77  83 W7        30.09R                  
JFK SPACE CTR  FAIR      82  67  60 W7        30.08R                  
TITUSVILLE     SUNNY     84  82  94 W6        30.07F HAZE    HX 101   
CAPE CANAVERAL FAIR      83  33  17 W8        30.07R                  
PATRICK AFB    FAIR      83  81  94 W6        30.08R HX  96           
MELBOURNE      FAIR      84  78  82 W6        30.08S HX  95           
VERO BEACH     FAIR      83  76  79 NW3       30.09S                  
FT PIERCE      FAIR      83  76  79 NW5       30.10R                  
STUART         SUNNY     84  75  74 CALM      30.11S                  

STATION/POSITION SKY/WX   TEMP    WIND        PRES    WAVE   SWELL
                          AIR SEA DIR/SP/G            HT/PER HT/PER
                          (F)     (DEG/KT/KT) (MB)    (FT/S) (FT/S)
TRIDENT PIER               81 76  260/  6/  7 1020.0R
28.4N   80.5W                 75                N/A     1/10
27.5N   80.2W                 81                N/A     1

$$
FLZ050-056-061-142-242-148-248-149-249-151-251-155-255-
160-260-231400-
WEST CENTRAL FLORIDA
  
CITY           SKY/WX    TMP DP  RH WIND       PRES   REMARKS
CRYSTAL RIVER  FAIR     N/A N/A N/A SW7       30.10R                  
INVERNESS      FAIR      82  82 100 W5        30.10R FOG     HX  97   
BROOKSVILLE    FAIR      83  77  82 SW5       30.11R                  
CLEARWATER AIR FAIR      82  72  69 SW3       30.10R                  
ST PETE CLEARW FAIR      83  75  77 W5        30.10R                  
TAMPA INTL     FAIR      85  76  74 W6        30.10R                  
PLANT CITY       N/A    N/A N/A N/A MISG        N/A                   
MACDILL AFB    FAIR      86  75  70 SW3       30.10R HX  95           
PETER O KNIGHT CLOUDY    84  79  84 CALM      30.10S HX  96           
ST PETERSBURG  FAIR      84  75  74 W5        30.08R                  
SARASOTA       FAIR      85  76  74 CALM      30.08R                  
VENICE         FAIR      84  79  84 SE5       30.10F HX  96           

STATION/POSITION SKY/WX   TEMP    WIND        PRES    WAVE   SWELL
                          AIR SEA DIR/SP/G            HT/PER HT/PER
                          (F)     (DEG/KT/KT) (MB)    (FT/S) (FT/S)
27.3N   84.2W                 85                N/A     1/ 4
CLEARWATER BEACH           84 88  230/  5/  6 1019.3R
MIDDLE TAMPA BAY           85     290/  2/  3 1019.3R
VENICE                     83 86  120/  2/  4 1019.3F

$$
FLZ066-069-070-075>078-162-262-165-265-231400-
SOUTHWEST FLORIDA AND KEYS
  
CITY           SKY/WX    TMP DP  RH WIND       PRES   REMARKS
PUNTA GORDA    FAIR      83  77  82 S3        30.11F                  
FT MYERS       FAIR      82  73  74 NE6       30.10S                  
SOUTHWEST INTL FAIR      83  75  77 NE7       30.11R                  
NAPLES         FAIR      85  76  74 NE7       30.10S                  
IMMOKALEE      FAIR      84  77  79 N7        30.10R                  
MARATHON       FAIR      86  76  71 SE3       30.10R HX  96           
KEY WEST NAS   PTSUNNY   87  77  72 SE6       30.10S HX  99           
KEY WEST INTL  FAIR      84  77  79 SE6       30.10S                  

STATION/POSITION SKY/WX   TEMP    WIND        PRES    WAVE   SWELL
                          AIR SEA DIR/SP/G            HT/PER HT/PER
                          (F)     (DEG/KT/KT) (MB)    (FT/S) (FT/S)
NAPLES                     83 88              1019.4R
DRY TORTUGAS     NOT AVBL

$$
FLZ067-068-071>074-168-172>174-231400-
SOUTHEAST FLORIDA 
  
CITY           SKY/WX    TMP DP  RH WIND       PRES   REMARKS
W PALM BEACH   FAIR      85  77  77 NW6       30.11R HX  95           
FT LAUDER-EXEC FAIR      85  76  74 W6        30.10R                  
FT LAUDERDALE  PTSUNNY   85  77  77 W7        30.09R HX  95           
POMPANO BEACH  FAIR      86  75  69 W9        30.10R HX  95           
PEMBROKE PINES FAIR      86  77  74 S5        30.11S HX  97           
OPA LOCKA      FAIR      86  77  74 W5        30.11R HX  97           
MIAMI          PTSUNNY   87  76  69 CALM      30.10S HX  97           
WEST KENDALL   FAIR      85  78  80 CALM      30.10S HX  96           
HOMESTEAD      FAIR      84  78  83 S3        30.09S HX  95           

STATION/POSITION SKY/WX   TEMP    WIND        PRES    WAVE   SWELL
                          AIR SEA DIR/SP/G            HT/PER HT/PER
                          (F)     (DEG/KT/KT) (MB)    (FT/S) (FT/S)
VIRGINIA KEY               85 89  190/  4/  6 1018.7R
LAKE WORTH                 83 84  280/  6/  8 1020.4R
FOWEY ROCKS                87 84  170/  2/  3 1019.5R
SETTLEMENT POINT           84     260/  9/ 10 1019.7R

$$